Year,Month,Day,Hour,Minute,Value (Times are PST for temperature in C)
2020,04,18,00,00,10.70
2020,04,18,00,01,10.70
2020,04,18,00,02,10.70
2020,04,18,00,03,10.60
2020,04,18,00,04,10.60
2020,04,18,00,05,10.60
2020,04,18,00,06,10.60
2020,04,18,00,07,10.60
2020,04,18,00,08,10.60
2020,04,18,00,09,10.60
2020,04,18,00,10,10.60
2020,04,18,00,11,10.60
2020,04,18,00,12,10.60
2020,04,18,00,13,10.60
2020,04,18,00,14,10.60
2020,04,18,00,15,10.60
2020,04,18,00,16,10.60
2020,04,18,00,17,10.60
2020,04,18,00,18,10.60
2020,04,18,00,19,10.60
2020,04,18,00,20,10.60
2020,04,18,00,21,10.60
2020,04,18,00,22,10.60
2020,04,18,00,23,10.60
2020,04,18,00,24,10.70
2020,04,18,00,25,10.70
2020,04,18,00,26,10.70
2020,04,18,00,27,10.70
2020,04,18,00,28,10.70
2020,04,18,00,29,10.70
2020,04,18,00,30,10.70
2020,04,18,00,31,10.70
2020,04,18,00,32,10.70
2020,04,18,00,33,10.70
2020,04,18,00,34,10.70
2020,04,18,00,35,10.70
2020,04,18,00,36,10.70
2020,04,18,00,37,10.70
2020,04,18,00,38,10.70
2020,04,18,00,39,10.70
2020,04,18,00,40,10.70
2020,04,18,00,41,10.70
2020,04,18,00,42,10.70
2020,04,18,00,43,10.60
2020,04,18,00,44,10.60
2020,04,18,00,45,10.60
2020,04,18,00,46,10.60
2020,04,18,00,47,10.60
2020,04,18,00,48,10.60
2020,04,18,00,49,10.60
2020,04,18,00,50,10.60
2020,04,18,00,51,10.60
2020,04,18,00,52,10.60
2020,04,18,00,53,10.60
2020,04,18,00,54,10.60
2020,04,18,00,55,10.60
2020,04,18,00,56,10.60
2020,04,18,00,57,10.60
2020,04,18,00,58,10.60
2020,04,18,00,59,10.60
2020,04,18,01,00,10.60
2020,04,18,01,01,10.60
2020,04,18,01,02,10.60
2020,04,18,01,03,10.60
2020,04,18,01,04,10.50
2020,04,18,01,05,10.50
2020,04,18,01,06,10.50
2020,04,18,01,07,10.60
2020,04,18,01,08,10.60
2020,04,18,01,09,10.60
2020,04,18,01,10,10.60
2020,04,18,01,11,10.60
2020,04,18,01,12,10.60
2020,04,18,01,13,10.60
2020,04,18,01,14,10.60
2020,04,18,01,15,10.60
2020,04,18,01,16,10.60
2020,04,18,01,17,10.60
2020,04,18,01,18,10.60
2020,04,18,01,19,10.60
2020,04,18,01,20,10.60
2020,04,18,01,21,10.60
2020,04,18,01,22,10.50
2020,04,18,01,23,10.50
2020,04,18,01,24,10.50
2020,04,18,01,25,10.50
2020,04,18,01,26,10.50
2020,04,18,01,27,10.50
2020,04,18,01,28,10.50
2020,04,18,01,29,10.50
2020,04,18,01,30,10.50
2020,04,18,01,31,10.50
2020,04,18,01,32,10.60
2020,04,18,01,33,10.60
2020,04,18,01,34,10.60
2020,04,18,01,35,10.60
2020,04,18,01,36,10.60
2020,04,18,01,37,10.60
2020,04,18,01,38,10.70
2020,04,18,01,39,10.70
2020,04,18,01,40,10.70
2020,04,18,01,41,10.70
2020,04,18,01,42,10.70
2020,04,18,01,43,10.70
2020,04,18,01,44,10.70
2020,04,18,01,45,10.70
2020,04,18,01,46,10.80
2020,04,18,01,47,10.80
2020,04,18,01,48,10.80
2020,04,18,01,49,10.80
2020,04,18,01,50,10.80
2020,04,18,01,51,10.80
2020,04,18,01,52,10.80
2020,04,18,01,53,10.80
2020,04,18,01,54,10.80
2020,04,18,01,55,10.80
2020,04,18,01,56,10.80
2020,04,18,01,57,10.80
2020,04,18,01,58,10.90
2020,04,18,01,59,10.90
2020,04,18,02,00,10.90
2020,04,18,02,01,10.90
2020,04,18,02,02,10.90
2020,04,18,02,03,10.90
2020,04,18,02,04,10.90
2020,04,18,02,05,10.90
2020,04,18,02,06,10.90
2020,04,18,02,07,11.00
2020,04,18,02,08,11.00
2020,04,18,02,09,11.00
2020,04,18,02,10,11.00
2020,04,18,02,11,11.10
2020,04,18,02,12,11.10
2020,04,18,02,13,11.10
2020,04,18,02,14,11.10
2020,04,18,02,15,11.10
2020,04,18,02,16,11.20
2020,04,18,02,17,11.20
2020,04,18,02,18,11.20
2020,04,18,02,19,11.10
2020,04,18,02,20,11.10
2020,04,18,02,21,11.10
2020,04,18,02,22,11.10
2020,04,18,02,23,11.10
2020,04,18,02,24,11.10
2020,04,18,02,25,11.10
2020,04,18,02,26,11.10
2020,04,18,02,27,11.10
2020,04,18,02,28,11.10
2020,04,18,02,29,11.10
2020,04,18,02,30,11.10
2020,04,18,02,31,11.20
2020,04,18,02,32,11.20
2020,04,18,02,33,11.20
2020,04,18,02,34,11.20
2020,04,18,02,35,11.20
2020,04,18,02,36,11.20
2020,04,18,02,37,11.10
2020,04,18,02,38,11.20
2020,04,18,02,39,11.20
2020,04,18,02,40,11.20
2020,04,18,02,41,11.20
2020,04,18,02,42,11.20
2020,04,18,02,43,11.20
2020,04,18,02,44,11.20
2020,04,18,02,45,11.20
2020,04,18,02,46,11.20
2020,04,18,02,47,11.20
2020,04,18,02,48,11.20
2020,04,18,02,49,11.20
2020,04,18,02,50,11.20
2020,04,18,02,51,11.20
2020,04,18,02,52,11.20
2020,04,18,02,53,11.20
2020,04,18,02,54,11.20
2020,04,18,02,55,11.20
2020,04,18,02,56,11.20
2020,04,18,02,57,11.20
2020,04,18,02,58,11.20
2020,04,18,02,59,11.10
2020,04,18,03,00,11.10
2020,04,18,03,01,11.10
2020,04,18,03,02,11.10
2020,04,18,03,03,11.00
2020,04,18,03,04,11.00
2020,04,18,03,05,11.00
2020,04,18,03,06,11.00
2020,04,18,03,07,10.90
2020,04,18,03,08,10.90
2020,04,18,03,09,10.90
2020,04,18,03,10,10.90
2020,04,18,03,11,10.90
2020,04,18,03,12,10.90
2020,04,18,03,13,10.90
2020,04,18,03,14,10.80
2020,04,18,03,15,10.80
2020,04,18,03,16,10.80
2020,04,18,03,17,10.80
2020,04,18,03,18,10.80
2020,04,18,03,19,10.80
2020,04,18,03,20,10.80
2020,04,18,03,21,10.70
2020,04,18,03,22,10.60
2020,04,18,03,23,10.60
2020,04,18,03,24,10.50
2020,04,18,03,25,10.40
2020,04,18,03,26,10.40
2020,04,18,03,27,10.40
2020,04,18,03,28,10.40
2020,04,18,03,29,10.30
2020,04,18,03,30,10.30
2020,04,18,03,31,10.30
2020,04,18,03,32,10.30
2020,04,18,03,33,10.20
2020,04,18,03,34,10.20
2020,04,18,03,35,10.20
2020,04,18,03,36,10.20
2020,04,18,03,37,10.20
2020,04,18,03,38,10.10
2020,04,18,03,39,10.10
2020,04,18,03,40,10.10
2020,04,18,03,41,10.00
2020,04,18,03,42,10.00
2020,04,18,03,43,10.00
2020,04,18,03,44,10.00
2020,04,18,03,45,10.00
2020,04,18,03,46,9.90
2020,04,18,03,47,9.90
2020,04,18,03,48,9.90
2020,04,18,03,49,9.90
2020,04,18,03,50,9.90
2020,04,18,03,51,9.90
2020,04,18,03,52,9.90
2020,04,18,03,53,9.90
2020,04,18,03,54,9.90
2020,04,18,03,55,9.90
2020,04,18,03,56,9.90
2020,04,18,03,57,9.80
2020,04,18,03,58,9.80
2020,04,18,03,59,9.80
2020,04,18,04,00,9.80
2020,04,18,04,01,9.80
2020,04,18,04,02,9.80
2020,04,18,04,03,9.80
2020,04,18,04,04,9.80
2020,04,18,04,05,9.80
2020,04,18,04,06,9.80
2020,04,18,04,07,9.80
2020,04,18,04,08,9.80
2020,04,18,04,09,9.70
2020,04,18,04,10,9.70
2020,04,18,04,11,9.70
2020,04,18,04,12,9.70
2020,04,18,04,13,9.70
2020,04,18,04,14,9.70
2020,04,18,04,15,9.70
2020,04,18,04,16,9.70
2020,04,18,04,17,9.70
2020,04,18,04,18,9.70
2020,04,18,04,19,9.70
2020,04,18,04,20,9.70
2020,04,18,04,21,9.70
2020,04,18,04,22,9.70
2020,04,18,04,23,9.70
2020,04,18,04,24,9.70
2020,04,18,04,25,9.70
2020,04,18,04,26,9.70
2020,04,18,04,27,9.70
2020,04,18,04,28,9.70
2020,04,18,04,29,9.70
2020,04,18,04,30,9.70
2020,04,18,04,31,9.70
2020,04,18,04,32,9.70
2020,04,18,04,33,9.70
2020,04,18,04,34,9.70
2020,04,18,04,35,9.70
2020,04,18,04,36,9.70
2020,04,18,04,37,9.70
2020,04,18,04,38,9.70
2020,04,18,04,39,9.70
2020,04,18,04,40,9.70
2020,04,18,04,41,9.70
2020,04,18,04,42,9.70
2020,04,18,04,43,9.70
2020,04,18,04,44,9.70
2020,04,18,04,45,9.70
2020,04,18,04,46,9.70
2020,04,18,04,47,9.70
2020,04,18,04,48,9.70
2020,04,18,04,49,9.70
2020,04,18,04,50,9.70
2020,04,18,04,51,9.70
2020,04,18,04,52,9.70
2020,04,18,04,53,9.70
2020,04,18,04,54,9.70
2020,04,18,04,55,9.70
2020,04,18,04,56,9.70
2020,04,18,04,57,9.70
2020,04,18,04,58,9.70
2020,04,18,04,59,9.70
2020,04,18,05,00,9.70
2020,04,18,05,01,9.80
2020,04,18,05,02,9.80
2020,04,18,05,03,9.80
2020,04,18,05,04,9.80
2020,04,18,05,05,9.80
2020,04,18,05,06,9.80
2020,04,18,05,07,9.80
2020,04,18,05,08,9.80
2020,04,18,05,09,9.80
2020,04,18,05,10,9.80
2020,04,18,05,11,9.80
2020,04,18,05,12,9.80
2020,04,18,05,13,9.80
2020,04,18,05,14,9.80
2020,04,18,05,15,9.80
2020,04,18,05,16,9.80
2020,04,18,05,17,9.80
2020,04,18,05,18,9.80
2020,04,18,05,19,9.80
2020,04,18,05,20,9.80
2020,04,18,05,21,9.80
2020,04,18,05,22,9.80
2020,04,18,05,23,9.80
2020,04,18,05,24,9.80
2020,04,18,05,25,9.80
2020,04,18,05,26,9.80
2020,04,18,05,27,9.80
2020,04,18,05,28,9.80
2020,04,18,05,29,9.80
2020,04,18,05,30,9.80
2020,04,18,05,31,9.80
2020,04,18,05,32,9.80
2020,04,18,05,33,9.80
2020,04,18,05,34,9.80
2020,04,18,05,35,9.80
2020,04,18,05,36,9.90
2020,04,18,05,37,9.90
2020,04,18,05,38,9.90
2020,04,18,05,39,9.90
2020,04,18,05,40,9.90
2020,04,18,05,41,9.90
2020,04,18,05,42,9.90
2020,04,18,05,43,9.90
2020,04,18,05,44,9.90
2020,04,18,05,45,9.90
2020,04,18,05,46,9.90
2020,04,18,05,47,9.90
2020,04,18,05,48,9.90
2020,04,18,05,49,9.90
2020,04,18,05,50,9.90
2020,04,18,08,06,10.10
2020,04,18,08,07,10.10
2020,04,18,08,08,10.10
2020,04,18,08,09,10.10
2020,04,18,08,10,10.20
2020,04,18,08,11,10.20
2020,04,18,08,12,10.20
2020,04,18,08,13,10.20
2020,04,18,08,14,10.20
2020,04,18,08,15,10.20
2020,04,18,08,16,10.20
2020,04,18,08,17,10.20
2020,04,18,08,18,10.20
2020,04,18,08,19,10.30
2020,04,18,08,20,10.30
2020,04,18,08,21,10.30
2020,04,18,08,22,10.30
2020,04,18,08,23,10.30
2020,04,18,08,24,10.30
2020,04,18,08,25,10.30
2020,04,18,08,26,10.30
2020,04,18,08,27,10.30
2020,04,18,08,28,10.30
2020,04,18,08,29,10.30
2020,04,18,08,30,10.30
2020,04,18,08,31,10.30
2020,04,18,08,32,10.30
2020,04,18,08,33,10.30
2020,04,18,08,34,10.30
2020,04,18,08,35,10.30
2020,04,18,08,36,10.30
2020,04,18,08,37,10.20
2020,04,18,08,38,10.20
2020,04,18,08,39,10.20
2020,04,18,08,40,10.20
2020,04,18,08,41,10.10
2020,04,18,08,42,10.10
2020,04,18,08,43,10.10
2020,04,18,08,44,10.10
2020,04,18,08,45,10.00
2020,04,18,08,46,9.90
2020,04,18,08,47,9.90
2020,04,18,08,48,9.90
2020,04,18,08,49,9.90
2020,04,18,08,50,9.80
2020,04,18,08,51,9.80
2020,04,18,08,52,9.80
2020,04,18,08,53,9.80
2020,04,18,08,54,9.80
2020,04,18,08,55,9.70
2020,04,18,08,56,9.80
2020,04,18,08,57,9.70
2020,04,18,08,58,9.70
2020,04,18,08,59,9.70
2020,04,18,09,00,9.70
2020,04,18,09,01,9.70
2020,04,18,09,02,9.70
2020,04,18,09,03,9.70
2020,04,18,09,04,9.70
2020,04,18,09,05,9.70
2020,04,18,09,06,9.70
2020,04,18,09,07,9.70
2020,04,18,09,08,9.70
2020,04,18,09,09,9.80
2020,04,18,09,10,9.80
2020,04,18,09,11,9.80
2020,04,18,09,12,9.80
2020,04,18,09,13,9.80
2020,04,18,09,14,9.80
2020,04,18,09,15,9.80
2020,04,18,09,16,9.90
2020,04,18,09,17,9.90
2020,04,18,09,18,9.90
2020,04,18,09,19,9.90
2020,04,18,09,20,9.90
2020,04,18,09,21,10.00
2020,04,18,09,22,10.00
2020,04,18,09,23,10.00
2020,04,18,09,24,10.10
2020,04,18,09,25,10.10
2020,04,18,09,26,10.10
2020,04,18,09,27,10.10
2020,04,18,09,28,10.10
2020,04,18,09,29,10.10
2020,04,18,09,30,10.10
2020,04,18,09,31,10.10
2020,04,18,09,32,10.10
2020,04,18,09,33,10.10
2020,04,18,09,34,10.10
2020,04,18,09,35,10.10
2020,04,18,09,36,10.10
2020,04,18,09,37,10.10
2020,04,18,09,38,10.10
2020,04,18,09,39,10.20
2020,04,18,09,40,10.20
2020,04,18,09,41,10.20
2020,04,18,09,42,10.20
2020,04,18,09,43,10.20
2020,04,18,09,44,10.30
2020,04,18,09,45,10.30
2020,04,18,09,46,10.30
2020,04,18,09,47,10.30
2020,04,18,09,48,10.40
2020,04,18,09,49,10.40
2020,04,18,09,50,10.30
2020,04,18,09,51,10.30
2020,04,18,09,52,10.40
2020,04,18,09,53,10.30
2020,04,18,09,54,10.40
2020,04,18,09,55,10.40
2020,04,18,09,56,10.40
2020,04,18,09,57,10.40
2020,04,18,09,58,10.40
2020,04,18,09,59,10.40
2020,04,18,10,00,10.40
2020,04,18,10,01,10.50
2020,04,18,10,02,10.50
2020,04,18,10,03,10.50
2020,04,18,10,04,10.50
2020,04,18,10,05,10.50
2020,04,18,10,06,10.60
2020,04,18,10,07,10.60
2020,04,18,10,08,10.60
2020,04,18,10,09,10.60
2020,04,18,10,10,10.60
2020,04,18,10,11,10.60
2020,04,18,10,12,10.60
2020,04,18,10,13,10.70
2020,04,18,10,14,10.70
2020,04,18,10,15,10.70
2020,04,18,10,16,10.70
2020,04,18,10,17,10.70
2020,04,18,10,18,10.80
2020,04,18,10,19,10.80
2020,04,18,10,20,10.80
2020,04,18,10,21,10.80
2020,04,18,10,22,10.80
2020,04,18,10,23,10.80
2020,04,18,10,24,10.80
2020,04,18,10,25,10.80
2020,04,18,10,26,10.80
2020,04,18,10,27,10.80
2020,04,18,10,28,10.80
2020,04,18,10,29,10.80
2020,04,18,10,30,10.80
2020,04,18,10,31,10.80
2020,04,18,10,32,10.80
2020,04,18,10,33,10.80
2020,04,18,10,34,10.80
2020,04,18,10,35,10.80
2020,04,18,10,36,10.80
2020,04,18,10,37,10.80
2020,04,18,10,38,10.80
2020,04,18,10,39,10.80
2020,04,18,10,40,10.80
2020,04,18,10,41,10.90
2020,04,18,10,42,10.90
2020,04,18,10,43,11.00
2020,04,18,10,44,11.00
2020,04,18,10,45,11.10
2020,04,18,10,46,11.10
2020,04,18,10,47,11.10
2020,04,18,10,48,11.10
2020,04,18,10,49,11.10
2020,04,18,10,50,11.20
2020,04,18,10,51,11.20
2020,04,18,10,52,11.20
2020,04,18,10,53,11.20
2020,04,18,10,54,11.30
2020,04,18,10,55,11.30
2020,04,18,10,56,11.30
2020,04,18,10,57,11.40
2020,04,18,10,58,11.40
2020,04,18,10,59,11.40
2020,04,18,11,00,11.50
2020,04,18,11,01,11.50
2020,04,18,11,02,11.60
2020,04,18,11,03,11.60
2020,04,18,11,04,11.70
2020,04,18,11,05,11.70
2020,04,18,11,06,11.80
2020,04,18,11,07,11.80
2020,04,18,11,08,11.90
2020,04,18,11,09,12.00
2020,04,18,11,10,12.00
2020,04,18,11,11,12.10
2020,04,18,11,12,12.20
2020,04,18,11,13,12.20
2020,04,18,11,14,12.30
2020,04,18,11,15,12.30
2020,04,18,11,16,12.30
2020,04,18,11,17,12.30
2020,04,18,11,18,12.30
2020,04,18,11,19,12.30
2020,04,18,11,20,12.30
2020,04,18,11,21,12.30
2020,04,18,11,22,12.30
2020,04,18,11,23,12.30
2020,04,18,11,24,12.30
2020,04,18,11,25,12.30
2020,04,18,11,26,12.40
2020,04,18,11,27,12.40
2020,04,18,11,28,12.40
2020,04,18,11,29,12.50
2020,04,18,11,30,12.60
2020,04,18,11,31,12.70
2020,04,18,11,32,12.80
2020,04,18,11,33,12.90
2020,04,18,11,34,13.00
2020,04,18,11,35,13.00
2020,04,18,11,36,13.10
2020,04,18,11,37,13.20
2020,04,18,11,38,13.20
2020,04,18,11,39,13.30
2020,04,18,11,40,13.30
2020,04,18,11,41,13.40
2020,04,18,11,42,13.40
2020,04,18,11,43,13.40
2020,04,18,11,44,13.40
2020,04,18,11,45,13.50
2020,04,18,11,46,13.50
2020,04,18,11,47,13.50
2020,04,18,11,48,13.60
2020,04,18,11,49,13.60
2020,04,18,11,50,13.50
2020,04,18,11,51,13.50
2020,04,18,11,52,13.50
2020,04,18,11,53,13.50
2020,04,18,11,54,13.50
2020,04,18,11,55,13.50
2020,04,18,11,56,13.40
2020,04,18,11,57,13.40
2020,04,18,11,58,13.30
2020,04,18,11,59,13.30
2020,04,18,12,00,13.30
2020,04,18,12,01,13.30
2020,04,18,12,02,13.30
2020,04,18,12,03,13.40
2020,04,18,12,04,13.40
2020,04,18,12,05,13.40
2020,04,18,12,06,13.40
2020,04,18,12,07,13.40
2020,04,18,12,08,13.50
2020,04,18,12,09,13.50
2020,04,18,12,10,13.50
2020,04,18,12,11,13.50
2020,04,18,12,12,13.40
2020,04,18,12,13,13.40
2020,04,18,12,14,13.40
2020,04,18,12,15,13.40
2020,04,18,12,16,13.40
2020,04,18,12,17,13.40
2020,04,18,12,18,13.40
2020,04,18,12,19,13.40
2020,04,18,12,20,13.30
2020,04,18,12,21,13.40
2020,04,18,12,22,13.40
2020,04,18,12,23,13.40
2020,04,18,12,24,13.40
2020,04,18,12,25,13.40
2020,04,18,12,26,13.40
2020,04,18,12,27,13.40
2020,04,18,12,28,13.40
2020,04,18,12,29,13.40
2020,04,18,12,30,13.40
2020,04,18,12,31,13.30
2020,04,18,12,32,13.30
2020,04,18,12,33,13.30
2020,04,18,12,34,13.20
2020,04,18,12,35,13.20
2020,04,18,12,36,13.20
2020,04,18,12,37,13.20
2020,04,18,12,38,13.30
2020,04,18,12,39,13.30
2020,04,18,12,40,13.30
2020,04,18,12,41,13.30
2020,04,18,12,42,13.30
2020,04,18,12,43,13.30
2020,04,18,12,44,13.30
2020,04,18,12,45,13.30
2020,04,18,12,46,13.40
2020,04,18,12,47,13.40
2020,04,18,12,48,13.40
2020,04,18,12,49,13.40
2020,04,18,12,50,13.30
2020,04,18,12,51,13.30
2020,04,18,12,52,13.30
2020,04,18,12,53,13.30
2020,04,18,12,54,13.30
2020,04,18,12,55,13.30
2020,04,18,12,56,13.30
2020,04,18,12,57,13.30
2020,04,18,12,58,13.30
2020,04,18,12,59,13.20
2020,04,18,13,00,13.20
2020,04,18,13,01,13.20
2020,04,18,13,02,13.30
2020,04,18,13,03,13.30
2020,04,18,13,04,13.20
2020,04,18,13,05,13.20
2020,04,18,13,06,13.30
2020,04,18,13,07,13.30
2020,04,18,13,08,13.30
2020,04,18,13,09,13.30
2020,04,18,13,10,13.30
2020,04,18,13,11,13.30
2020,04,18,13,12,13.30
2020,04,18,13,13,13.30
2020,04,18,13,14,13.30
2020,04,18,13,15,13.30
2020,04,18,13,16,13.30
2020,04,18,13,17,13.30
2020,04,18,13,18,13.30
2020,04,18,13,19,13.30
2020,04,18,13,20,13.30
2020,04,18,13,21,13.30
2020,04,18,13,22,13.30
2020,04,18,13,23,13.40
2020,04,18,13,24,13.30
2020,04,18,13,25,13.30
2020,04,18,13,26,13.40
2020,04,18,13,27,13.40
2020,04,18,13,28,13.40
2020,04,18,13,29,13.40
2020,04,18,13,30,13.40
2020,04,18,13,31,13.40
2020,04,18,13,32,13.50
2020,04,18,13,33,13.50
2020,04,18,13,34,13.50
2020,04,18,13,35,13.60
2020,04,18,13,36,13.60
2020,04,18,13,37,13.60
2020,04,18,13,38,13.60
2020,04,18,13,39,13.50
2020,04,18,13,40,13.50
2020,04,18,13,41,13.50
2020,04,18,13,42,13.50
2020,04,18,13,43,13.50
2020,04,18,13,44,13.40
2020,04,18,13,45,13.40
2020,04,18,13,46,13.40
2020,04,18,13,47,13.30
2020,04,18,13,48,13.30
2020,04,18,13,49,13.20
2020,04,18,13,50,13.20
2020,04,18,13,51,13.20
2020,04,18,13,52,13.10
2020,04,18,13,53,13.10
2020,04,18,13,54,13.00
2020,04,18,13,55,13.00
2020,04,18,13,56,13.10
2020,04,18,13,57,13.10
2020,04,18,13,58,13.10
2020,04,18,13,59,13.10
2020,04,18,14,00,13.00
2020,04,18,14,01,13.00
2020,04,18,14,02,12.90
2020,04,18,14,03,12.90
2020,04,18,14,04,12.90
2020,04,18,14,05,12.80
2020,04,18,14,06,12.80
2020,04,18,14,07,12.80
2020,04,18,14,08,12.80
2020,04,18,14,09,12.80
2020,04,18,14,10,12.80
2020,04,18,14,11,12.70
2020,04,18,14,12,12.70
2020,04,18,14,13,12.80
2020,04,18,14,14,12.80
2020,04,18,14,15,12.80
2020,04,18,14,16,12.80
2020,04,18,14,17,12.80
2020,04,18,14,18,12.70
2020,04,18,14,19,12.70
2020,04,18,14,20,12.70
2020,04,18,14,21,12.70
2020,04,18,14,22,12.70
2020,04,18,14,23,12.70
2020,04,18,14,24,12.70
2020,04,18,14,25,12.70
2020,04,18,14,26,12.70
2020,04,18,14,27,12.70
2020,04,18,14,28,12.70
2020,04,18,14,29,12.70
2020,04,18,14,30,12.70
2020,04,18,14,31,12.60
2020,04,18,14,32,12.60
2020,04,18,14,33,12.50
2020,04,18,14,34,12.50
2020,04,18,14,35,12.40
2020,04,18,14,36,12.40
2020,04,18,14,37,12.30
2020,04,18,14,38,12.30
2020,04,18,14,39,12.30
2020,04,18,14,40,12.20
2020,04,18,14,41,12.20
2020,04,18,14,42,12.00
2020,04,18,14,43,11.90
2020,04,18,14,44,11.80
2020,04,18,14,45,11.70
2020,04,18,14,46,11.70
2020,04,18,14,47,11.60
2020,04,18,14,48,11.60
2020,04,18,14,49,11.60
2020,04,18,14,50,11.60
2020,04,18,14,51,11.50
2020,04,18,14,52,11.50
2020,04,18,14,53,11.50
2020,04,18,14,54,11.40
2020,04,18,14,55,11.40
2020,04,18,14,56,11.40
2020,04,18,14,57,11.40
2020,04,18,14,58,11.40
2020,04,18,14,59,11.40
2020,04,18,15,00,11.40
2020,04,18,15,01,11.40
2020,04,18,15,02,11.40
2020,04,18,15,03,11.40
2020,04,18,15,04,11.30
2020,04,18,15,05,11.30
2020,04,18,15,06,11.20
2020,04,18,15,07,11.20
2020,04,18,15,08,11.20
2020,04,18,15,09,11.20
2020,04,18,15,10,11.20
2020,04,18,15,11,11.20
2020,04,18,15,12,11.20
2020,04,18,15,13,11.10
2020,04,18,15,14,11.10
2020,04,18,15,15,11.10
2020,04,18,15,16,11.10
2020,04,18,15,17,11.10
2020,04,18,15,18,11.10
2020,04,18,15,19,11.10
2020,04,18,15,20,11.10
2020,04,18,15,21,11.10
2020,04,18,15,22,11.10
2020,04,18,15,23,11.10
2020,04,18,15,24,11.10
2020,04,18,15,25,11.10
2020,04,18,15,26,11.10
2020,04,18,15,27,11.10
2020,04,18,15,28,11.10
2020,04,18,15,29,11.10
2020,04,18,15,30,11.10
2020,04,18,15,31,11.10
2020,04,18,20,19,12.60
2020,04,18,20,20,12.60
2020,04,18,20,21,12.60
2020,04,18,20,22,12.60
2020,04,18,20,23,12.60
2020,04,18,20,24,12.60
2020,04,18,20,25,12.50
2020,04,18,20,26,12.50
2020,04,18,20,27,12.40
2020,04,18,20,28,12.40
2020,04,18,20,29,12.40
2020,04,18,20,30,12.30
2020,04,18,20,31,12.30
2020,04,18,20,32,12.30
2020,04,18,20,33,12.30
2020,04,18,20,34,12.30
2020,04,18,20,35,12.30
2020,04,18,20,36,12.30
2020,04,18,20,37,12.40
2020,04,18,20,38,12.40
2020,04,18,20,39,12.40
2020,04,18,20,40,12.40
2020,04,18,20,41,12.40
2020,04,18,20,42,12.40
2020,04,18,20,43,12.40
2020,04,18,20,44,12.40
2020,04,18,20,45,12.40
2020,04,18,20,46,12.40
2020,04,18,20,47,12.40
2020,04,18,20,48,12.40
2020,04,18,20,49,12.40
2020,04,18,20,50,12.40
2020,04,18,20,51,12.40
2020,04,18,20,52,12.40
2020,04,18,20,53,12.40
2020,04,18,20,54,12.30
2020,04,18,20,55,12.30
2020,04,18,20,56,12.30
2020,04,18,20,57,12.30
2020,04,18,20,58,12.30
2020,04,18,20,59,12.30
2020,04,18,21,00,12.30
2020,04,18,21,01,12.30
2020,04,18,21,02,12.30
2020,04,18,21,03,12.30
2020,04,18,21,04,12.30
2020,04,18,21,05,12.20
2020,04,18,21,06,12.20
2020,04,18,21,07,12.10
2020,04,18,21,08,12.10
2020,04,18,21,09,12.10
2020,04,18,21,10,12.10
2020,04,18,21,11,12.00
2020,04,18,21,12,12.00
2020,04,18,21,13,12.00
2020,04,18,21,14,12.00
2020,04,18,21,15,11.90
2020,04,18,21,16,11.90
2020,04,18,21,17,11.90
2020,04,18,21,18,11.90
2020,04,18,21,19,11.90
2020,04,18,21,20,11.90
2020,04,18,21,21,11.80
2020,04,18,21,22,11.80
2020,04,18,21,23,11.80
2020,04,18,21,24,11.80
2020,04,18,21,25,11.80
2020,04,18,21,26,11.90
2020,04,18,21,27,11.90
2020,04,18,21,28,11.90
2020,04,18,21,29,11.90
2020,04,18,21,30,11.90
2020,04,18,21,31,11.90
2020,04,18,21,32,11.90
2020,04,18,21,33,11.90
2020,04,18,21,34,11.90
2020,04,18,21,35,11.90
2020,04,18,21,36,11.90
2020,04,18,21,37,11.90
2020,04,18,21,38,11.80
2020,04,18,21,39,11.80
2020,04,18,21,40,11.80
2020,04,18,21,41,11.80
2020,04,18,21,42,11.70
2020,04,18,21,43,11.70
2020,04,18,21,44,11.70
2020,04,18,21,45,11.70
2020,04,18,21,46,11.70
2020,04,18,21,47,11.60
2020,04,18,21,48,11.60
2020,04,18,21,49,11.60
2020,04,18,21,50,11.60
2020,04,18,21,51,11.60
2020,04,18,21,52,11.50
2020,04,18,21,53,11.50
2020,04,18,21,54,11.40
2020,04,18,21,55,11.40
2020,04,18,21,56,11.40
2020,04,18,21,57,11.40
2020,04,18,21,58,11.30
2020,04,18,21,59,11.30
2020,04,18,22,00,11.30
2020,04,18,22,01,11.30
2020,04,18,22,02,11.30
2020,04,18,22,03,11.30
2020,04,18,22,04,11.30
2020,04,18,22,05,11.30
2020,04,18,22,06,11.30
2020,04,18,22,07,11.20
2020,04,18,22,08,11.20
2020,04,18,22,09,11.20
2020,04,18,22,10,11.20
2020,04,18,22,11,11.20
2020,04,18,22,12,11.20
2020,04,18,22,13,11.20
2020,04,18,22,14,11.20
2020,04,18,22,15,11.20
2020,04,18,22,16,11.20
2020,04,18,22,17,11.20
2020,04,18,22,18,11.20
2020,04,18,22,19,11.20
2020,04,18,22,20,11.20
2020,04,18,22,21,11.20
2020,04,18,22,22,11.20
2020,04,18,22,23,11.20
2020,04,18,22,24,11.20
2020,04,18,22,25,11.20
2020,04,18,22,26,11.20
2020,04,18,22,27,11.20
2020,04,18,22,28,11.20
2020,04,18,22,29,11.20
2020,04,18,22,30,11.20
2020,04,18,22,31,11.20
2020,04,18,22,32,11.20
2020,04,18,22,33,11.20
2020,04,18,22,34,11.20
2020,04,18,22,35,11.20
2020,04,18,22,36,11.20
2020,04,18,22,37,11.20
2020,04,18,22,38,11.20
2020,04,18,22,39,11.20
2020,04,18,22,40,11.20
2020,04,18,22,41,11.20
2020,04,18,22,42,11.20
2020,04,18,22,43,11.20
2020,04,18,22,44,11.20
2020,04,18,22,45,11.20
2020,04,18,22,46,11.20
2020,04,18,22,47,11.20
2020,04,18,22,48,11.20
2020,04,18,22,49,11.20
2020,04,18,22,50,11.10
2020,04,18,22,51,11.10
2020,04,18,22,52,11.10
2020,04,18,22,53,11.10
2020,04,18,22,54,11.00
2020,04,18,22,55,11.00
2020,04,18,22,56,11.00
2020,04,18,22,57,11.00
2020,04,18,22,58,10.90
2020,04,18,22,59,10.90
2020,04,18,23,00,10.90
2020,04,18,23,01,10.90
2020,04,18,23,02,10.90
2020,04,18,23,03,10.90
2020,04,18,23,04,10.90
2020,04,18,23,05,10.90
2020,04,18,23,06,10.90
2020,04,18,23,07,10.90
2020,04,18,23,08,10.90
2020,04,18,23,09,10.90
2020,04,18,23,10,10.90
2020,04,18,23,11,11.00
2020,04,18,23,12,10.90
2020,04,18,23,13,10.90
2020,04,18,23,14,10.90
2020,04,18,23,15,10.90
2020,04,18,23,16,10.90
2020,04,18,23,17,10.90
2020,04,18,23,18,10.90
2020,04,18,23,19,10.90
2020,04,18,23,20,10.90
2020,04,18,23,21,10.90
2020,04,18,23,22,10.90
2020,04,18,23,23,10.90
2020,04,18,23,24,10.90
2020,04,18,23,25,10.90
2020,04,18,23,26,10.90
2020,04,18,23,27,10.90
2020,04,18,23,28,10.90
2020,04,18,23,29,10.90
2020,04,18,23,30,10.90
2020,04,18,23,31,10.90
2020,04,18,23,32,10.90
2020,04,18,23,33,10.90
2020,04,18,23,34,10.90
2020,04,18,23,35,10.90
2020,04,18,23,36,10.90
2020,04,18,23,37,10.90
2020,04,18,23,38,10.90
2020,04,18,23,39,10.90
2020,04,18,23,40,10.90
2020,04,18,23,41,10.90
2020,04,18,23,42,10.80
2020,04,18,23,43,10.80
2020,04,18,23,44,10.80
2020,04,18,23,45,10.80
2020,04,18,23,46,10.80
2020,04,18,23,47,10.80
2020,04,18,23,48,10.80
2020,04,18,23,49,10.80
2020,04,18,23,50,10.80
2020,04,18,23,51,10.80
2020,04,18,23,52,10.80
2020,04,18,23,53,10.80
2020,04,18,23,54,10.70
2020,04,18,23,55,10.70
2020,04,18,23,56,10.70
2020,04,18,23,57,10.70
2020,04,18,23,58,10.70
2020,04,18,23,59,10.70
